Cloud_Cover
100 100 100 100 100 100 100 100 100 100 100 100 100 17 98 100 100 100 100 100 98 81 56 100 100 100 100 100 100 100 100 100 100 100 100 93 40 9 2 44 54 5 5 8 52
100 100 100 100 100 99 100 100 100 100 100 100 100 100 100 100 65 30 11 100 100 100 100 100 100 100 100 100 100 100 91 100 100 100 100 100 22 28 39 96 62 5 14 31 5
100 100 100 100 100 100 100 100 100 100 100 96 100 100 100 40 89 28 10 28 100 100 100 92 67 100 100 100 98 73 62 62 99 100 83 100 80 94 100 100 31 5 67 20 47
100 100 100 100 100 100 100 100 100 100 100 100 100 100 86 90 66 100 100 100 100 100 100 100 100 100 96 76 16 100 100 70 100 90 74 69 4 10 5 12 3 14 72 5 8
100 100 100 100 100 100 100 100 100 100 100 100 100 100 31 92 99 97 100 88 100 100 90 53 99 63 95 87 41 85 95 100 100 100 100 12 2 20 15 4 5 14 4 3 88
100 100 100 100 100 100 100 100 100 100 100 100 100 100 100 100 93 99 99 47 98 92 100 94 22 5 92 100 100 100 95 95 73 31 19 5 6 14 5 5 95 8 3 5 16
100 100 100 100 100 100 100 100 100 100 100 54 100 100 100 100 100 100 100 100 100 100 99 100 99 100 90 100 100 100 78 12 95 82 2 5 82 45 95 99 20 96 45 5 5
100 100 100 100 100 100 100 100 100 100 100 100 78 12 98 100 100 100 100 100 100 100 100 100 100 100 100 100 100 83 100 46 100 100 100 100 100 100 84 62 5 90 78 2 5
100 100 100 100 100 100 100 100 100 100 100 86 100 100 100 100 100 100 100 100 100 100 100 100 100 100 100 100 100 100 100 100 100 100 100 100 100 100 95 59 4 5 20 24 10
100 100 100 100 100 100 100 100 100 100 100 95 32 100 100 100 100 100 100 100 100 100 95 100 67 90 100 100 100 100 100 100 100 100 100 100 100 100 100 70 5 27 3 2 98
100 100 100 100 100 100 100 100 100 100 100 100 100 100 100 100 100 100 100 100 100 100 100 100 100 100 100 100 5 25 48 94 100 97 5 73 100 100 99 8 5 3 0 28 95
100 100 100 100 100 100 100 98 100 100 100 100 100 100 100 100 100 100 100 100 100 97 100 84 100 100 100 12 16 41 14 58 19 97 18 98 100 100 85 5 5 1 6 63 100
100 100 100 100 100 100 100 100 100 100 100 100 100 100 100 95 100 100 89 100 100 100 100 100 100 100 100 56 91 99 96 96 19 100 5 17 80 100 96 10 41 31 100 100 100
100 100 100 100 100 100 100 100 100 100 100 100 100 100 100 100 100 100 100 100 100 100 100 100 100 100 100 93 100 100 100 82 60 91 20 55 9 100 100 48 6 91 100 100 80
100 100 100 100 100 100 100 100 100 100 100 100 100 100 100 100 100 100 100 100 100 100 100 97 100 100 100 100 100 100 100 100 76 74 89 36 97 100 100 84 5 4 8 43 100
100 100 100 100 100 100 100 100 100 100 100 100 100 90 100 100 100 100 100 100 100 100 100 100 100 100 100 100 65 40 97 100 100 86 8 100 100 100 100 100 100 99 11 6 12
55 100 100 100 100 100 100 100 100 100 100 95 100 100 100 100 100 100 100 100 100 100 100 100 100 100 100 100 100 100 100 100 100 54 99 100 98 99 100 100 61 5 5 54 100
6 100 100 100 100 100 100 100 100 100 100 100 100 100 100 100 100 100 100 100 100 100 100 100 100 100 100 100 100 100 100 100 97 100 100 99 94 100 78 100 100 99 100 100 97
36 100 100 100 100 100 100 100 100 100 100 50 100 100 100 100 100 100 97 100 100 100 100 100 100 100 100 100 100 100 81 100 100 100 100 100 100 100 100 100 94 82 100 80 5
99 99 100 100 100 100 100 100 100 100 100 100 96 98 84 100 100 100 100 100 100 100 100 100 100 100 100 100 63 91 100 100 100 100 100 97 100 100 100 58 73 100 98 92 88
100 100 100 100 100 100 100 100 100 100 100 100 100 67 100 100 100 100 100 100 100 100 100 100 100 81 100 28 54 100 100 100 100 100 100 100 100 100 100 100 100 100 100 100 34
100 100 100 100 100 100 100 100 100 100 100 100 100 100 84 85 100 100 100 100 100 100 100 100 100 99 79 70 96 100 100 100 100 100 100 100 100 17 94 100 100 100 100 100 37
100 98 100 100 100 100 100 100 100 100 100 100 100 100 100 100 99 100 100 100 100 100 100 100 100 100 100 100 100 100 100 100 100 98 100 98 88 100 100 100 100 100 72 30 5
100 100 100 100 100 100 100 100 100 100 100 100 100 100 100 100 97 58 97 100 100 100 100 100 100 100 100 100 100 100 100 100 100 96 51 10 94 100 100 100 100 84 22 57 100
100 100 32 100 100 100 100 100 100 100 100 100 100 100 100 100 100 100 98 99 100 100 100 100 100 100 100 100 100 100 100 100 100 100 89 23 22 100 100 100 83 78 100 100 53
100 100 100 99 100 100 100 100 100 100 100 100 100 100 100 100 100 100 65 100 100 100 100 100 100 100 100 100 100 100 100 100 100 100 96 91 61 100 100 100 83 83 100 63 5
100 47 100 10 100 100 100 100 100 100 100 98 100 100 100 100 100 100 100 100 100 100 100 100 100 100 100 100 100 100 100 100 100 100 100 100 100 98 96 95 63 41 20 16 90